• In Netherlands
  • List of Countries
  • For 7 days
  • Water Temperature
  • Satellite Maps
  • Weather Map
  • Weather Widgets
  • user-avatar
    Login

    Hourly Weather Sidi Bu-l-Abbas

    Today, 20 October, Friday

    Time Temperature Precipitation Wind Pressure Humidity
    00:00 +16°C° 0 mm 8 mps 720 mmHg 79%
    01:00 +16°C° 0.2 mm 8 mps 720 mmHg 80%
    02:00 +16°C° 0.2 mm 7 mps 720 mmHg 80%
    03:00 +16°C° 0.2 mm 7 mps 721 mmHg 81%
    04:00 +16°C° 0.1 mm 6 mps 721 mmHg 81%
    05:00 +16°C° 0.1 mm 6 mps 721 mmHg 82%
    06:00 +16°C° 0 mm 6 mps 721 mmHg 84%
    07:00 +17°C° 0.1 mm 6 mps 722 mmHg 78%
    08:00 +17°C° 0.1 mm 6 mps 722 mmHg 73%
    09:00 +19°C° 0.1 mm 6 mps 723 mmHg 68%
    10:00 +20°C° 0 mm 6 mps 723 mmHg 64%
    11:00 +21°C° 0 mm 6 mps 723 mmHg 60%
    12:00 +21°C° 0 mm 6 mps 724 mmHg 56%
    13:00 +21°C° 0 mm 6 mps 724 mmHg 56%
    14:00 +22°C° 0 mm 6 mps 724 mmHg 55%
    15:00 +22°C° 0 mm 5 mps 723 mmHg 55%
    16:00 +21°C° 0 mm 4 mps 724 mmHg 59%
    17:00 +20°C° 0 mm 3 mps 724 mmHg 63%
    18:00 +20°C° 0 mm 2 mps 724 mmHg 67%
    19:00 +19°C° 0 mm 2 mps 724 mmHg 69%
    20:00 +19°C° 0 mm 2 mps 724 mmHg 71%
    21:00 +20°C° 0 mm 1 mps 725 mmHg 73%
    22:00 +19°C° 0 mm 1 mps 725 mmHg 72%
    23:00 +19°C° 0 mm 1 mps 725 mmHg 70%

    Tomorrow, 21 October, Saturday

    Time Temperature Precipitation Wind Pressure Humidity
    00:00 +19°C° 0 mm 1 mps 725 mmHg 69%
    01:00 +18°C° 0 mm 1 mps 724 mmHg 68%
    02:00 +16°C° 0 mm 0 mps 724 mmHg 67%
    03:00 +16°C° 0 mm 0 mps 724 mmHg 66%
    04:00 +16°C° 0 mm 0 mps 724 mmHg 66%
    05:00 +15°C° 0 mm 0 mps 724 mmHg 65%
    06:00 +15°C° 0 mm 0 mps 724 mmHg 64%
    07:00 +17°C° 0 mm 0 mps 725 mmHg 56%
    08:00 +21°C° 0 mm 1 mps 725 mmHg 49%
    09:00 +23°C° 0 mm 1 mps 726 mmHg 41%
    10:00 +24°C° 0 mm 1 mps 726 mmHg 39%
    11:00 +25°C° 0 mm 1 mps 726 mmHg 36%
    12:00 +26°C° 0 mm 1 mps 726 mmHg 33%
    13:00 +26°C° 0 mm 1 mps 725 mmHg 33%
    14:00 +26°C° 0 mm 2 mps 725 mmHg 32%
    15:00 +27°C° 0 mm 2 mps 725 mmHg 32%
    16:00 +26°C° 0 mm 2 mps 725 mmHg 36%
    17:00 +25°C° 0 mm 2 mps 725 mmHg 40%
    18:00 +24°C° 0 mm 2 mps 725 mmHg 44%
    19:00 +23°C° 0 mm 1 mps 725 mmHg 48%
    20:00 +22°C° 0 mm 1 mps 725 mmHg 51%
    21:00 +20°C° 0 mm 0 mps 726 mmHg 54%
    22:00 +19°C° 0 mm 0 mps 725 mmHg 55%
    23:00 +19°C° 0 mm 0 mps 725 mmHg 56%

    Day after tomorrow, 22 October, Sunday

    Time Temperature Precipitation Wind Pressure Humidity
    00:00 +18°C° 0 mm 0 mps 725 mmHg 57%
    01:00 +18°C° 0 mm 0 mps 725 mmHg 58%
    02:00 +18°C° 0 mm 0 mps 725 mmHg 59%
    03:00 +17°C° 0 mm 0 mps 725 mmHg 60%
    04:00 +17°C° 0 mm 0 mps 725 mmHg 61%
    05:00 +17°C° 0 mm 0 mps 725 mmHg 62%
    06:00 +16°C° 0 mm 0 mps 724 mmHg 63%
    07:00 +18°C° 0 mm 0 mps 725 mmHg 57%
    08:00 +20°C° 0 mm 0 mps 725 mmHg 51%
    09:00 +21°C° 0 mm 0 mps 726 mmHg 44%
    10:00 +24°C° 0 mm 1 mps 726 mmHg 42%
    11:00 +25°C° 0 mm 1 mps 726 mmHg 39%
    12:00 +26°C° 0 mm 2 mps 726 mmHg 36%
    13:00 +26°C° 0 mm 2 mps 725 mmHg 36%
    14:00 +26°C° 0 mm 3 mps 725 mmHg 36%
    15:00 +26°C° 0 mm 3 mps 725 mmHg 36%
    16:00 +25°C° 0 mm 3 mps 725 mmHg 40%
    17:00 +24°C° 0 mm 3 mps 725 mmHg 45%
    18:00 +22°C° 0 mm 3 mps 725 mmHg 49%
    19:00 +23°C° 0 mm 2 mps 725 mmHg 52%
    20:00 +21°C° 0 mm 2 mps 726 mmHg 55%
    21:00 +21°C° 0 mm 1 mps 726 mmHg 58%
    22:00 +21°C° 0 mm 1 mps 726 mmHg 60%
    23:00 +21°C° 0 mm 1 mps 726 mmHg 62%

    23 October, Monday

    Time Temperature Precipitation Wind Pressure Humidity
    00:00 +20°C° 0 mm 1 mps 726 mmHg 63%
    01:00 +20°C° 0 mm 1 mps 725 mmHg 64%
    02:00 +19°C° 0 mm 1 mps 725 mmHg 64%
    03:00 +19°C° 0 mm 1 mps 725 mmHg 65%
    04:00 +19°C° 0 mm 1 mps 725 mmHg 66%
    05:00 +19°C° 0 mm 1 mps 725 mmHg 67%
    06:00 +18°C° 0 mm 1 mps 725 mmHg 68%
    07:00 +20°C° 0 mm 1 mps 725 mmHg 62%
    08:00 +21°C° 0 mm 1 mps 726 mmHg 56%
    09:00 +22°C° 0 mm 1 mps 726 mmHg 50%
    10:00 +23°C° 0 mm 2 mps 726 mmHg 46%
    11:00 +24°C° 0 mm 2 mps 726 mmHg 43%
    12:00 +25°C° 0 mm 2 mps 726 mmHg 39%
    13:00 +26°C° 0 mm 3 mps 725 mmHg 38%
    14:00 +26°C° 0 mm 4 mps 725 mmHg 38%
    15:00 +26°C° 0 mm 4 mps 725 mmHg 37%
    16:00 +25°C° 0 mm 4 mps 725 mmHg 42%
    17:00 +23°C° 0 mm 4 mps 725 mmHg 46%
    18:00 +22°C° 0 mm 4 mps 725 mmHg 51%
    19:00 +21°C° 0 mm 3 mps 725 mmHg 54%
    20:00 +21°C° 0 mm 3 mps 725 mmHg 58%
    21:00 +20°C° 0 mm 2 mps 726 mmHg 61%
    22:00 +20°C° 0 mm 2 mps 725 mmHg 62%
    23:00 +20°C° 0 mm 1 mps 725 mmHg 64%

    24 October, Tuesday

    Time Temperature Precipitation Wind Pressure Humidity
    00:00 +20°C° 0 mm 1 mps 725 mmHg 65%
    01:00 +20°C° 0 mm 1 mps 725 mmHg 65%
    02:00 +19°C° 0 mm 1 mps 724 mmHg 64%
    03:00 +19°C° 0 mm 1 mps 724 mmHg 64%
    04:00 +19°C° 0 mm 1 mps 724 mmHg 63%
    05:00 +19°C° 0 mm 1 mps 724 mmHg 62%
    06:00 +17°C° 0 mm 2 mps 724 mmHg 61%
    07:00 +19°C° 0 mm 2 mps 724 mmHg 55%
    08:00 +21°C° 0 mm 2 mps 725 mmHg 48%
    09:00 +23°C° 0 mm 2 mps 725 mmHg 42%
    10:00 +25°C° 0 mm 2 mps 725 mmHg 38%
    11:00 +26°C° 0 mm 1 mps 725 mmHg 33%
    12:00 +27°C° 0 mm 1 mps 724 mmHg 29%
    13:00 +27°C° 0 mm 2 mps 724 mmHg 29%
    14:00 +28°C° 0 mm 2 mps 724 mmHg 28%
    15:00 +28°C° 0 mm 3 mps 723 mmHg 27%
    16:00 +27°C° 0 mm 3 mps 723 mmHg 32%
    17:00 +25°C° 0 mm 2 mps 723 mmHg 37%
    18:00 +24°C° 0 mm 2 mps 723 mmHg 42%
    19:00 +24°C° 0 mm 2 mps 723 mmHg 45%
    20:00 +23°C° 0 mm 1 mps 723 mmHg 48%
    21:00 +22°C° 0 mm 1 mps 723 mmHg 51%
    22:00 +22°C° 0 mm 1 mps 723 mmHg 52%
    23:00 +21°C° 0 mm 1 mps 723 mmHg 53%

    25 October, Wednesday

    Time Temperature Precipitation Wind Pressure Humidity
    00:00 +19°C° 0 mm 0 mps 723 mmHg 53%
    01:00 +18°C° 0 mm 0 mps 723 mmHg 54%
    02:00 +18°C° 0 mm 0 mps 723 mmHg 55%
    03:00 +18°C° 0 mm 0 mps 722 mmHg 55%
    04:00 +17°C° 0 mm 0 mps 722 mmHg 56%
    05:00 +17°C° 0 mm 0 mps 722 mmHg 56%
    06:00 +17°C° 0 mm 0 mps 722 mmHg 57%
    07:00 +19°C° 0 mm 0 mps 723 mmHg 50%
    08:00 +20°C° 0 mm 0 mps 723 mmHg 43%
    09:00 +22°C° 0 mm 0 mps 724 mmHg 37%
    10:00 +25°C° 0 mm 1 mps 724 mmHg 34%
    11:00 +26°C° 0 mm 1 mps 724 mmHg 32%
    12:00 +27°C° 0 mm 2 mps 723 mmHg 29%
    13:00 +28°C° 0 mm 2 mps 723 mmHg 30%
    14:00 +28°C° 0 mm 3 mps 723 mmHg 31%
    15:00 +28°C° 0 mm 3 mps 723 mmHg 32%
    16:00 +27°C° 0 mm 3 mps 723 mmHg 37%
    17:00 +25°C° 0 mm 3 mps 723 mmHg 42%
    18:00 +24°C° 0 mm 2 mps 723 mmHg 47%
    19:00 +24°C° 0 mm 2 mps 723 mmHg 50%
    20:00 +23°C° 0 mm 1 mps 724 mmHg 53%
    21:00 +22°C° 0 mm 1 mps 724 mmHg 57%
    22:00 +22°C° 0 mm 1 mps 724 mmHg 58%
    23:00 +21°C° 0 mm 1 mps 724 mmHg 59%
    Show more